TAX02JA LPPR-LPLA

Flight info

Callsign TAX02JA
Flight time 2h 16m
Altitude 33000
Route ASMOV DCT DIRMA DCT ERPES/M077F340 DCT LENSI DCT BAVAS DCT LACTA
Aircraft A321/M-SDE3FGHIRWY/LB1

Departure

Time 2026-04-26 16:46
Airport Francisco de Sá Carneiro Airport (LPPR)

Arrival

Time 2026-04-26 19:02
Airport Lajes Airport (LPLA)
Time Latitude Longitude Altitude Speed Heading
2026-04-26 16:12 41.23685 -8.67254 243 ft 0 kts 79°
2026-04-26 16:39 41.23685 -8.67256 242 ft 2 kts 79°
2026-04-26 16:39 41.23682 -8.67289 242 ft 4 kts 90°
2026-04-26 16:39 41.23685 -8.67324 242 ft 4 kts 108°
2026-04-26 16:40 41.23696 -8.67356 242 ft 4 kts 130°
2026-04-26 16:40 41.23712 -8.67375 242 ft 1 kts 145°
2026-04-26 16:42 41.23703 -8.67367 242 ft 8 kts 146°
2026-04-26 16:42 41.23626 -8.67338 242 ft 12 kts 173°
2026-04-26 16:43 41.23543 -8.67373 239 ft 14 kts 205°
2026-04-26 16:43 41.23448 -8.67379 237 ft 14 kts 165°
2026-04-26 16:43 41.23359 -8.67374 239 ft 14 kts 208°
2026-04-26 16:43 41.23324 -8.67483 237 ft 13 kts 255°
2026-04-26 16:44 41.23309 -8.67589 236 ft 11 kts 259°
2026-04-26 16:44 41.23296 -8.67671 239 ft 6 kts 259°
2026-04-26 16:44 41.23312 -8.67726 240 ft 11 kts 319°
2026-04-26 16:44 41.23365 -8.67748 239 ft 0 kts 348°
2026-04-26 16:45 41.23369 -8.67749 239 ft 7 kts 347°
2026-04-26 16:45 41.23672 -8.67828 227 ft 89 kts 349°
2026-04-26 16:45 41.24543 -8.68057 212 ft 161 kts 349°
2026-04-26 16:45 41.25794 -8.68394 470 ft 196 kts 347°
2026-04-26 16:46 41.27217 -8.68790 1021 ft 221 kts 347°
2026-04-26 16:46 41.28805 -8.69209 1338 ft 244 kts 348°
2026-04-26 16:46 41.30506 -8.69647 1978 ft 252 kts 348°
2026-04-26 16:46 41.32246 -8.70098 2691 ft 257 kts 348°
2026-04-26 16:47 41.34021 -8.70561 3411 ft 262 kts 349°
2026-04-26 16:47 41.35824 -8.71035 4147 ft 265 kts 348°
2026-04-26 16:47 41.37544 -8.71966 4855 ft 271 kts 324°
2026-04-26 16:47 41.38828 -8.73797 5554 ft 275 kts 298°
2026-04-26 16:48 41.39382 -8.76231 6246 ft 279 kts 272°
2026-04-26 16:48 41.39118 -8.78792 6939 ft 282 kts 255°
2026-04-26 16:48 41.38622 -8.81333 7625 ft 286 kts 255°
2026-04-26 16:48 41.38115 -8.83903 8302 ft 289 kts 255°
2026-04-26 16:49 41.37602 -8.86507 8970 ft 292 kts 255°
2026-04-26 16:49 41.37089 -8.89139 9593 ft 295 kts 255°
2026-04-26 16:49 41.36574 -8.91802 10242 ft 299 kts 255°
2026-04-26 16:49 41.36039 -8.94566 10461 ft 319 kts 255°
2026-04-26 16:50 41.35466 -8.97526 10596 ft 341 kts 255°
2026-04-26 16:50 41.34864 -9.00641 10966 ft 352 kts 255°
2026-04-26 16:50 41.34246 -9.03816 11560 ft 357 kts 255°
2026-04-26 16:50 41.33619 -9.07023 12196 ft 360 kts 255°
2026-04-26 16:51 41.32983 -9.10261 12807 ft 363 kts 255°
2026-04-26 16:51 41.32343 -9.13521 13429 ft 365 kts 255°
2026-04-26 16:51 41.31700 -9.16797 14032 ft 368 kts 255°
2026-04-26 16:51 41.31050 -9.20105 14635 ft 371 kts 255°
2026-04-26 16:52 41.30395 -9.23436 15226 ft 374 kts 255°
2026-04-26 16:52 41.29958 -9.25657 15610 ft 375 kts 255°
2026-04-26 16:52 41.29071 -9.30166 16379 ft 378 kts 255°
2026-04-26 16:52 41.28400 -9.33561 16921 ft 381 kts 255°
2026-04-26 16:53 41.27720 -9.36977 17453 ft 384 kts 255°
2026-04-26 16:53 41.27034 -9.40413 17975 ft 386 kts 255°
2026-04-26 16:53 41.26352 -9.43824 18476 ft 388 kts 255°
2026-04-26 16:53 41.25657 -9.47306 18958 ft 391 kts 255°
2026-04-26 16:54 41.24949 -9.50855 19452 ft 393 kts 255°
2026-04-26 16:54 41.24244 -9.54377 19921 ft 395 kts 255°
2026-04-26 16:54 41.23544 -9.57870 20367 ft 398 kts 255°
2026-04-26 16:54 41.22821 -9.61469 20820 ft 400 kts 255°
2026-04-26 16:55 41.22112 -9.65000 21252 ft 402 kts 255°
2026-04-26 16:55 41.21387 -9.68597 21690 ft 404 kts 255°
2026-04-26 16:55 41.20658 -9.72212 22116 ft 406 kts 255°
2026-04-26 16:55 41.19924 -9.75847 22520 ft 409 kts 255°
2026-04-26 16:56 41.18442 -9.83171 23322 ft 413 kts 255°
2026-04-26 16:56 41.17691 -9.86859 23694 ft 415 kts 255°
2026-04-26 16:56 41.16936 -9.90564 24090 ft 417 kts 255°
2026-04-26 16:57 41.16177 -9.94285 24446 ft 419 kts 255°
2026-04-26 16:57 41.15414 -9.98024 24808 ft 421 kts 255°
2026-04-26 16:57 41.13878 -10.05546 25527 ft 424 kts 255°
2026-04-26 16:58 41.13103 -10.09317 25879 ft 425 kts 255°
2026-04-26 16:58 41.12584 -10.11829 26102 ft 427 kts 255°
2026-04-26 16:58 41.10740 -10.20732 26880 ft 430 kts 255°
2026-04-26 16:59 41.09945 -10.24569 27189 ft 432 kts 255°
2026-04-26 16:59 41.08348 -10.32277 27815 ft 435 kts 255°
2026-04-26 17:00 41.06738 -10.40029 28407 ft 438 kts 255°
2026-04-26 17:00 41.05106 -10.47831 28973 ft 441 kts 255°
2026-04-26 17:00 41.04283 -10.51748 29222 ft 442 kts 255°
2026-04-26 17:01 41.03458 -10.55675 29466 ft 443 kts 255°
2026-04-26 17:01 41.02630 -10.59615 29720 ft 445 kts 255°
2026-04-26 17:01 41.01801 -10.63556 29981 ft 446 kts 255°
2026-04-26 17:01 41.00966 -10.67514 30220 ft 447 kts 254°
2026-04-26 17:02 41.00127 -10.71486 30466 ft 449 kts 254°
2026-04-26 17:02 40.99285 -10.75461 30786 ft 448 kts 254°
2026-04-26 17:02 40.98443 -10.79424 31140 ft 446 kts 254°
2026-04-26 17:02 40.97603 -10.83371 31502 ft 445 kts 254°
2026-04-26 17:03 40.96761 -10.87304 31852 ft 444 kts 254°
2026-04-26 17:03 40.95919 -10.91227 32178 ft 442 kts 254°
2026-04-26 17:03 40.95079 -10.95141 32504 ft 442 kts 254°
2026-04-26 17:03 40.94240 -10.99041 32841 ft 440 kts 254°
2026-04-26 17:04 40.93403 -11.02936 33041 ft 440 kts 254°
2026-04-26 17:04 40.92576 -11.06790 33082 ft 432 kts 254°
2026-04-26 17:04 40.90946 -11.14371 33082 ft 428 kts 254°
2026-04-26 17:05 40.89313 -11.21926 33082 ft 427 kts 254°
2026-04-26 17:05 40.87668 -11.29469 33082 ft 427 kts 253°
2026-04-26 17:06 40.86021 -11.37009 33082 ft 427 kts 253°
2026-04-26 17:06 40.84375 -11.44544 33079 ft 427 kts 253°
2026-04-26 17:07 40.82723 -11.52075 33083 ft 427 kts 253°
2026-04-26 17:07 40.81062 -11.59613 33081 ft 428 kts 253°
2026-04-26 17:08 40.79395 -11.67150 33082 ft 428 kts 253°
2026-04-26 17:08 40.78099 -11.74798 33080 ft 428 kts 262°
2026-04-26 17:09 40.77608 -11.79958 33077 ft 428 kts 262°
2026-04-26 17:09 40.76620 -11.90341 33079 ft 429 kts 262°
2026-04-26 17:10 40.75871 -11.98144 33078 ft 429 kts 262°
2026-04-26 17:10 40.75111 -12.05942 33080 ft 429 kts 262°
2026-04-26 17:11 40.74347 -12.13751 33084 ft 429 kts 262°
2026-04-26 17:11 40.73578 -12.21561 33088 ft 430 kts 262°
2026-04-26 17:12 40.72408 -12.33269 33091 ft 429 kts 262°
2026-04-26 17:13 40.71236 -12.44966 33085 ft 429 kts 262°
2026-04-26 17:14 40.70177 -12.55380 33077 ft 428 kts 262°
2026-04-26 17:14 40.68989 -12.66983 33071 ft 428 kts 262°
2026-04-26 17:15 40.67782 -12.78632 33071 ft 427 kts 262°
2026-04-26 17:16 40.66968 -12.86387 33069 ft 427 kts 262°
2026-04-26 17:16 40.66152 -12.94140 33066 ft 427 kts 261°
2026-04-26 17:17 40.65335 -13.01888 33064 ft 427 kts 261°
2026-04-26 17:17 40.64514 -13.09626 33062 ft 427 kts 261°
2026-04-26 17:18 40.63679 -13.17377 33063 ft 428 kts 261°
2026-04-26 17:18 40.62843 -13.25129 33064 ft 428 kts 261°
2026-04-26 17:19 40.61584 -13.36746 33060 ft 427 kts 261°
2026-04-26 17:19 40.60730 -13.44484 33057 ft 427 kts 261°
2026-04-26 17:20 40.60025 -13.50913 33056 ft 428 kts 261°
2026-04-26 17:20 40.59021 -13.59963 33056 ft 428 kts 261°
2026-04-26 17:21 40.58153 -13.67707 33053 ft 428 kts 261°
2026-04-26 17:21 40.57282 -13.75456 33051 ft 428 kts 261°
2026-04-26 17:22 40.56411 -13.83207 33049 ft 429 kts 261°
2026-04-26 17:22 40.55531 -13.90911 33048 ft 429 kts 261°
2026-04-26 17:23 40.54637 -13.98670 33046 ft 429 kts 260°
2026-04-26 17:23 40.53741 -14.06434 33052 ft 429 kts 260°
2026-04-26 17:24 40.52845 -14.14194 33056 ft 429 kts 260°
2026-04-26 17:24 40.51944 -14.21942 33057 ft 429 kts 260°
2026-04-26 17:25 40.51033 -14.29695 33061 ft 429 kts 260°
2026-04-26 17:25 40.50119 -14.37447 33065 ft 429 kts 260°
2026-04-26 17:26 40.49202 -14.45189 33070 ft 429 kts 260°
2026-04-26 17:26 40.48279 -14.52918 33075 ft 428 kts 260°
2026-04-26 17:27 40.47342 -14.60631 33078 ft 427 kts 260°
2026-04-26 17:27 40.46410 -14.68335 33080 ft 427 kts 260°
2026-04-26 17:28 40.45486 -14.76018 33081 ft 426 kts 260°
2026-04-26 17:28 40.44555 -14.83698 33084 ft 425 kts 259°
2026-04-26 17:29 40.43772 -14.90070 33083 ft 425 kts 259°
2026-04-26 17:29 40.42661 -14.99006 33083 ft 424 kts 259°
2026-04-26 17:30 40.41711 -15.06638 33080 ft 424 kts 259°
2026-04-26 17:30 40.40754 -15.14266 33083 ft 424 kts 259°
2026-04-26 17:31 40.39800 -15.21885 33081 ft 423 kts 259°
2026-04-26 17:31 40.38832 -15.29499 33076 ft 423 kts 259°
2026-04-26 17:32 40.37859 -15.37122 33072 ft 424 kts 259°
2026-04-26 17:32 40.36890 -15.44746 33072 ft 424 kts 259°
2026-04-26 17:33 40.35917 -15.52352 33069 ft 423 kts 259°
2026-04-26 17:34 40.34444 -15.63767 33062 ft 424 kts 258°
2026-04-26 17:34 40.33447 -15.71383 33064 ft 424 kts 258°
2026-04-26 17:35 40.32456 -15.79008 33066 ft 425 kts 258°
2026-04-26 17:35 40.31459 -15.86637 33065 ft 425 kts 258°
2026-04-26 17:36 40.30451 -15.94271 33067 ft 425 kts 258°
2026-04-26 17:36 40.29436 -16.01908 33069 ft 425 kts 258°
2026-04-26 17:37 40.28413 -16.09540 33073 ft 425 kts 258°
2026-04-26 17:37 40.27384 -16.17159 33077 ft 425 kts 258°
2026-04-26 17:38 40.25838 -16.28591 33078 ft 425 kts 258°
2026-04-26 17:38 40.24802 -16.36202 33077 ft 424 kts 258°
2026-04-26 17:39 40.23764 -16.43802 33081 ft 424 kts 258°
2026-04-26 17:39 40.22714 -16.51399 33093 ft 424 kts 258°
2026-04-26 17:40 40.21841 -16.57699 33103 ft 424 kts 258°
2026-04-26 17:40 40.20616 -16.66564 33104 ft 423 kts 258°
2026-04-26 17:41 40.19564 -16.74123 33109 ft 422 kts 258°
2026-04-26 17:41 40.18502 -16.81674 33118 ft 422 kts 258°
2026-04-26 17:42 40.17439 -16.89206 33129 ft 421 kts 258°
2026-04-26 17:42 40.16372 -16.96722 33134 ft 420 kts 258°
2026-04-26 17:43 40.15305 -17.04229 33138 ft 420 kts 258°
2026-04-26 17:43 40.14236 -17.11734 33136 ft 420 kts 258°
2026-04-26 17:44 40.13163 -17.19233 33135 ft 420 kts 258°
2026-04-26 17:44 40.12077 -17.26711 33132 ft 419 kts 258°
2026-04-26 17:45 40.10991 -17.34187 33129 ft 419 kts 258°
2026-04-26 17:45 40.09899 -17.41661 33126 ft 419 kts 258°
2026-04-26 17:46 40.08802 -17.49132 33125 ft 419 kts 258°
2026-04-26 17:46 40.07703 -17.56613 33127 ft 420 kts 258°
2026-04-26 17:47 40.06972 -17.61568 33129 ft 420 kts 258°
2026-04-26 17:47 40.05489 -17.71580 33132 ft 421 kts 258°
2026-04-26 17:48 40.04371 -17.79076 33132 ft 421 kts 258°
2026-04-26 17:48 40.03242 -17.86567 33132 ft 421 kts 257°
2026-04-26 17:49 40.02117 -17.94009 33132 ft 421 kts 258°
2026-04-26 17:49 40.00986 -18.01500 33133 ft 421 kts 258°
2026-04-26 17:50 39.99850 -18.08991 33134 ft 421 kts 257°
2026-04-26 17:50 39.98705 -18.16478 33135 ft 421 kts 257°
2026-04-26 17:51 39.97556 -18.23950 33131 ft 421 kts 257°
2026-04-26 17:51 39.96404 -18.31428 33131 ft 421 kts 257°
2026-04-26 17:52 39.95249 -18.38911 33128 ft 421 kts 257°
2026-04-26 17:52 39.94095 -18.46400 33131 ft 422 kts 257°
2026-04-26 17:53 39.92928 -18.53886 33132 ft 422 kts 257°
2026-04-26 17:54 39.91160 -18.65123 33136 ft 423 kts 257°
2026-04-26 17:54 39.89970 -18.72621 33139 ft 423 kts 257°
2026-04-26 17:55 39.88782 -18.80112 33139 ft 423 kts 257°
2026-04-26 17:55 39.87583 -18.87613 33139 ft 423 kts 257°
2026-04-26 17:56 39.86381 -18.95118 33140 ft 424 kts 257°
2026-04-26 17:57 39.83968 -19.10130 33141 ft 424 kts 257°
2026-04-26 17:57 39.82754 -19.17629 33140 ft 424 kts 257°
2026-04-26 17:58 39.80505 -19.31373 33145 ft 424 kts 257°
2026-04-26 17:59 39.78663 -19.42633 33151 ft 424 kts 257°
2026-04-26 17:59 39.77430 -19.50127 33161 ft 424 kts 257°
2026-04-26 18:00 39.76187 -19.57617 33174 ft 424 kts 257°
2026-04-26 18:00 39.74939 -19.65100 33168 ft 423 kts 257°
2026-04-26 18:01 39.73684 -19.72569 33167 ft 423 kts 257°
2026-04-26 18:01 39.72431 -19.80034 33171 ft 423 kts 257°
2026-04-26 18:02 39.71385 -19.86225 33171 ft 422 kts 257°
2026-04-26 18:02 39.69904 -19.94930 33168 ft 422 kts 257°
2026-04-26 18:03 39.68639 -20.02378 33169 ft 422 kts 257°
2026-04-26 18:03 39.67376 -20.09821 33179 ft 422 kts 257°
2026-04-26 18:04 39.66099 -20.17259 33164 ft 422 kts 256°
2026-04-26 18:05 39.64183 -20.28411 33168 ft 422 kts 256°
2026-04-26 18:05 39.62893 -20.35839 33159 ft 423 kts 256°
2026-04-26 18:06 39.61590 -20.43275 33152 ft 423 kts 257°
2026-04-26 18:06 39.60288 -20.50729 33145 ft 424 kts 257°
2026-04-26 18:07 39.58977 -20.58203 33149 ft 426 kts 257°
2026-04-26 18:07 39.57669 -20.65691 33151 ft 426 kts 257°
2026-04-26 18:08 39.56351 -20.73181 33153 ft 426 kts 256°
2026-04-26 18:08 39.55015 -20.80664 33154 ft 427 kts 256°
2026-04-26 18:09 39.53675 -20.88164 33165 ft 427 kts 256°
2026-04-26 18:09 39.52334 -20.95660 33154 ft 428 kts 256°
2026-04-26 18:10 39.50984 -21.03162 33159 ft 428 kts 256°
2026-04-26 18:10 39.49631 -21.10654 33158 ft 427 kts 256°
2026-04-26 18:11 39.48279 -21.18144 33154 ft 427 kts 256°
2026-04-26 18:11 39.46921 -21.25632 33162 ft 427 kts 256°
2026-04-26 18:12 39.45561 -21.33114 33164 ft 428 kts 256°
2026-04-26 18:12 39.44187 -21.40602 33156 ft 427 kts 256°
2026-04-26 18:13 39.42810 -21.48080 33164 ft 427 kts 256°
2026-04-26 18:13 39.41425 -21.55558 33158 ft 428 kts 256°
2026-04-26 18:14 39.40034 -21.63042 33161 ft 428 kts 256°
2026-04-26 18:14 39.38645 -21.70525 33170 ft 428 kts 256°
2026-04-26 18:15 39.37250 -21.78000 33173 ft 427 kts 256°
2026-04-26 18:15 39.35851 -21.85462 33175 ft 427 kts 256°
2026-04-26 18:16 39.34456 -21.92915 33170 ft 427 kts 256°
2026-04-26 18:16 39.32350 -22.04081 33164 ft 427 kts 256°
2026-04-26 18:17 39.30924 -22.11529 33172 ft 428 kts 256°
2026-04-26 18:17 39.29498 -22.18987 33169 ft 428 kts 256°
2026-04-26 18:18 39.28068 -22.26451 33170 ft 428 kts 256°
2026-04-26 18:18 39.26628 -22.33919 33175 ft 429 kts 256°
2026-04-26 18:19 39.25190 -22.41386 33179 ft 429 kts 256°
2026-04-26 18:19 39.23745 -22.48863 33173 ft 429 kts 256°
2026-04-26 18:20 39.22296 -22.56338 33171 ft 430 kts 256°
2026-04-26 18:20 39.21089 -22.62546 33167 ft 430 kts 256°
2026-04-26 18:21 39.19383 -22.71294 33165 ft 430 kts 256°
2026-04-26 18:21 39.17913 -22.78773 33167 ft 431 kts 256°
2026-04-26 18:22 39.16435 -22.86265 33182 ft 432 kts 256°
2026-04-26 18:22 39.14943 -22.93766 33184 ft 432 kts 256°
2026-04-26 18:23 39.13445 -23.01272 33191 ft 433 kts 256°
2026-04-26 18:23 39.11954 -23.08783 33190 ft 433 kts 256°
2026-04-26 18:24 39.10464 -23.16290 33192 ft 433 kts 256°
2026-04-26 18:24 39.08954 -23.23800 33194 ft 433 kts 256°
2026-04-26 18:25 39.07439 -23.31315 33196 ft 434 kts 256°
2026-04-26 18:25 39.05921 -23.38830 33201 ft 434 kts 256°
2026-04-26 18:26 39.04397 -23.46345 33205 ft 435 kts 256°
2026-04-26 18:26 39.02864 -23.53869 33207 ft 435 kts 256°
2026-04-26 18:27 39.01317 -23.61391 33208 ft 435 kts 256°
2026-04-26 18:27 39.00091 -23.68986 33208 ft 433 kts 267°
2026-04-26 18:28 39.00113 -23.76725 33211 ft 433 kts 272°
2026-04-26 18:28 39.00211 -23.84465 33210 ft 433 kts 272°
2026-04-26 18:29 39.00306 -23.92209 33212 ft 433 kts 272°
2026-04-26 18:29 39.00393 -23.99959 33213 ft 434 kts 272°
2026-04-26 18:30 39.00465 -24.07704 33220 ft 433 kts 272°
2026-04-26 18:30 39.00526 -24.15451 33226 ft 433 kts 272°
2026-04-26 18:31 39.00598 -24.23191 33229 ft 433 kts 272°
2026-04-26 18:31 39.00669 -24.30920 33229 ft 432 kts 272°
2026-04-26 18:32 39.00730 -24.38651 33229 ft 432 kts 272°
2026-04-26 18:32 39.00782 -24.46376 33228 ft 432 kts 272°
2026-04-26 18:33 39.00830 -24.54096 33227 ft 432 kts 272°
2026-04-26 18:33 39.00874 -24.61808 33223 ft 431 kts 272°
2026-04-26 18:34 39.00910 -24.69514 33222 ft 431 kts 272°
2026-04-26 18:34 39.00942 -24.77219 33223 ft 431 kts 272°
2026-04-26 18:35 39.00968 -24.84921 33225 ft 431 kts 272°
2026-04-26 18:35 39.00994 -24.92606 33225 ft 430 kts 272°
2026-04-26 18:36 39.01010 -25.00292 33223 ft 430 kts 272°
2026-04-26 18:36 39.01028 -25.07972 33223 ft 429 kts 272°
2026-04-26 18:37 39.01036 -25.15651 33225 ft 429 kts 272°
2026-04-26 18:37 39.01040 -25.23324 33227 ft 429 kts 272°
2026-04-26 18:38 39.01035 -25.30995 33226 ft 429 kts 272°
2026-04-26 18:38 39.01025 -25.38797 33230 ft 442 kts 272°
2026-04-26 18:39 39.01015 -25.45375 33185 ft 443 kts 272°
2026-04-26 18:39 39.01010 -25.49339 32240 ft 449 kts 272°
2026-04-26 18:39 39.01002 -25.53370 31488 ft 450 kts 272°
2026-04-26 18:40 39.00989 -25.57390 30848 ft 449 kts 272°
2026-04-26 18:40 39.00974 -25.61374 30026 ft 441 kts 272°
2026-04-26 18:40 39.00957 -25.65280 28816 ft 435 kts 271°
2026-04-26 18:40 39.00940 -25.69136 27683 ft 426 kts 271°
2026-04-26 18:41 39.00920 -25.72839 27288 ft 400 kts 271°
2026-04-26 18:41 39.00901 -25.76324 26828 ft 380 kts 271°
2026-04-26 18:41 39.00883 -25.79683 26385 ft 374 kts 271°
2026-04-26 18:41 39.00868 -25.83029 25965 ft 375 kts 272°
2026-04-26 18:42 39.00856 -25.86375 25534 ft 374 kts 272°
2026-04-26 18:42 39.00844 -25.89727 25116 ft 375 kts 271°
2026-04-26 18:42 39.00830 -25.93064 24687 ft 372 kts 271°
2026-04-26 18:42 39.00812 -25.96377 24264 ft 369 kts 271°
2026-04-26 18:43 39.00791 -25.99662 23839 ft 367 kts 271°
2026-04-26 18:43 39.00766 -26.02931 23415 ft 365 kts 271°
2026-04-26 18:43 39.00740 -26.06180 22981 ft 362 kts 271°
2026-04-26 18:43 39.00716 -26.09409 22557 ft 360 kts 271°
2026-04-26 18:44 39.00691 -26.12618 22132 ft 358 kts 270°
2026-04-26 18:44 39.00662 -26.15807 21697 ft 356 kts 270°
2026-04-26 18:44 39.00633 -26.18976 21275 ft 354 kts 270°
2026-04-26 18:44 39.00605 -26.22127 20842 ft 352 kts 270°
2026-04-26 18:45 39.00580 -26.25258 20413 ft 350 kts 270°
2026-04-26 18:45 39.00555 -26.28378 19980 ft 348 kts 270°
2026-04-26 18:45 39.00530 -26.31483 19553 ft 346 kts 270°
2026-04-26 18:45 39.00505 -26.34575 19127 ft 345 kts 269°
2026-04-26 18:46 39.00475 -26.37643 18697 ft 343 kts 269°
2026-04-26 18:46 39.00445 -26.40658 18288 ft 341 kts 269°
2026-04-26 18:46 39.00411 -26.43740 17876 ft 339 kts 269°
2026-04-26 18:46 39.00380 -26.46727 17463 ft 338 kts 269°
2026-04-26 18:47 39.00348 -26.49736 17053 ft 336 kts 269°
2026-04-26 18:47 39.00312 -26.52737 16650 ft 335 kts 269°
2026-04-26 18:47 39.00279 -26.55717 16238 ft 333 kts 269°
2026-04-26 18:47 39.00245 -26.58708 15715 ft 336 kts 268°
2026-04-26 18:48 39.00209 -26.61708 15303 ft 334 kts 268°
2026-04-26 18:48 39.00176 -26.64695 14807 ft 336 kts 268°
2026-04-26 18:48 39.00147 -26.67692 14385 ft 334 kts 268°
2026-04-26 18:48 39.00124 -26.70674 13971 ft 333 kts 268°
2026-04-26 18:49 39.00099 -26.73646 13566 ft 332 kts 268°
2026-04-26 18:49 39.00070 -26.76604 13156 ft 330 kts 268°
2026-04-26 18:49 39.00039 -26.79550 12740 ft 329 kts 267°
2026-04-26 18:49 39.00010 -26.82481 12335 ft 327 kts 268°
2026-04-26 18:50 38.99979 -26.85395 11917 ft 326 kts 267°
2026-04-26 18:50 38.99945 -26.88304 11504 ft 325 kts 267°
2026-04-26 18:50 38.99915 -26.91200 11084 ft 323 kts 267°
2026-04-26 18:50 38.99885 -26.94081 10662 ft 321 kts 267°
2026-04-26 18:51 38.99855 -26.96939 10373 ft 315 kts 267°
2026-04-26 18:51 38.99828 -26.99698 10233 ft 304 kts 267°
2026-04-26 18:51 38.99795 -27.02388 10013 ft 297 kts 266°
2026-04-26 18:51 38.99760 -27.05047 9623 ft 299 kts 267°
2026-04-26 18:52 38.99726 -27.07708 9247 ft 296 kts 266°
2026-04-26 18:52 38.99692 -27.10353 8773 ft 297 kts 266°
2026-04-26 18:52 38.99657 -27.12979 8494 ft 291 kts 266°
2026-04-26 18:52 38.99623 -27.15573 8117 ft 289 kts 266°
2026-04-26 18:53 38.99588 -27.18148 7743 ft 287 kts 266°
2026-04-26 18:53 38.99553 -27.20701 7370 ft 284 kts 266°
2026-04-26 18:53 38.99516 -27.23233 6985 ft 282 kts 266°
2026-04-26 18:53 38.99478 -27.25750 6609 ft 281 kts 266°
2026-04-26 18:54 38.99440 -27.28246 6230 ft 278 kts 266°
2026-04-26 18:54 38.99403 -27.30721 5850 ft 276 kts 266°
2026-04-26 18:54 38.99357 -27.33173 5396 ft 275 kts 263°
2026-04-26 18:54 38.98755 -27.35501 4645 ft 279 kts 231°
2026-04-26 18:55 38.97270 -27.36920 4218 ft 257 kts 194°
2026-04-26 18:55 38.95621 -27.36870 4133 ft 227 kts 156°
2026-04-26 18:55 38.94524 -27.35563 4087 ft 215 kts 117°
2026-04-26 18:55 38.94028 -27.33786 4028 ft 209 kts 113°
2026-04-26 18:56 38.93523 -27.32043 3979 ft 203 kts 114°
2026-04-26 18:56 38.93051 -27.30424 3926 ft 184 kts 114°
2026-04-26 18:56 38.92622 -27.28959 3865 ft 168 kts 114°
2026-04-26 18:56 38.92216 -27.27577 3838 ft 166 kts 114°
2026-04-26 18:57 38.91773 -27.26216 3727 ft 164 kts 123°
2026-04-26 18:57 38.91353 -27.25422 3619 ft 162 kts 131°
2026-04-26 18:57 38.90309 -27.24020 3369 ft 163 kts 140°
2026-04-26 18:57 38.89467 -27.23058 3159 ft 162 kts 142°
2026-04-26 18:58 38.88607 -27.22126 2935 ft 162 kts 143°
2026-04-26 18:58 38.87747 -27.21212 2734 ft 160 kts 143°
2026-04-26 18:58 38.86883 -27.20301 2515 ft 160 kts 143°
2026-04-26 18:58 38.86026 -27.19397 2313 ft 159 kts 143°
2026-04-26 18:59 38.85172 -27.18500 2096 ft 160 kts 143°
2026-04-26 18:59 38.84302 -27.17590 1880 ft 161 kts 143°
2026-04-26 18:59 38.83432 -27.16677 1680 ft 161 kts 142°
2026-04-26 18:59 38.82566 -27.15766 1453 ft 161 kts 142°
2026-04-26 19:00 38.81701 -27.14859 1251 ft 160 kts 142°
2026-04-26 19:00 38.80847 -27.13962 1032 ft 154 kts 142°
2026-04-26 19:00 38.80065 -27.13142 821 ft 139 kts 142°
2026-04-26 19:00 38.79340 -27.12355 622 ft 135 kts 141°
2026-04-26 19:01 38.78622 -27.11595 458 ft 133 kts 142°
2026-04-26 19:01 38.77897 -27.10846 278 ft 134 kts 143°
2026-04-26 19:01 38.77185 -27.10113 163 ft 122 kts 143°
2026-04-26 19:01 38.76697 -27.09611 170 ft 72 kts 141°
2026-04-26 19:02 38.76337 -27.09238 171 ft 61 kts 141°
2026-04-26 19:02 38.76083 -27.08975 176 ft 43 kts 141°
2026-04-26 19:02 38.75911 -27.08894 177 ft 22 kts 185°
2026-04-26 19:02 38.75808 -27.08904 177 ft 22 kts 184°
2026-04-26 19:03 38.75632 -27.08837 178 ft 19 kts 139°
2026-04-26 19:03 38.75532 -27.08729 178 ft 14 kts 142°
2026-04-26 19:03 38.75526 -27.08650 179 ft 5 kts 17°
2026-04-26 19:03 38.75557 -27.08706 178 ft 11 kts 279°
2026-04-26 19:04 38.75557 -27.08713 178 ft 0 kts 269°